ヒル彗星

232P/Hill (2019)

English version
Home page
Updated on March 28, 2019

---------------------------------------------------------------------

・ プロフィール

・ 写真集

・ 軌道要素

Epoch 2019 Mar. 18.0 TT = JDT 2458560.5
T 2019 Apr. 6.59106 TT                                  MPCW
q   2.9845283            (2000.0)            P               Q
n   0.10372369     Peri.   53.54956     -0.31349002     -0.92619814
a   4.4862563      Node    56.03032     +0.77024037     -0.37703712
e   0.3347397      Incl.   14.63059     +0.55538616     +0.00009964
P   9.50
From 216 observations 1999 Dec. 12-2018 Oct. 6, mean residual 0".6.

・ 光度変化

        m1 = 8.5 + 5 logΔ + 20 log r

        ※ 灰色の曲線は、m1 = 4.0 + 5 logΔ + 25 log r の光度曲線です。

---------------------------------------------------------------------

軌道要素はM.P.E.C. 2018-U70に掲載されたものです。
光度グラフはComet for Windowsで作成したものです。

---------------------------------------------------------------------

Copyright(C) Seiichi Yoshida (comet@aerith.net). All rights reserved.